• Processing (Info)

  • MPEC 2002-T82 : 2000 TG2

    The following Minor Planet Electronic Circular may be linked-to from your own Web pages, but must not otherwise be redistributed electronically.

    A form allowing access to any MPEC is at the bottom of this page.


    Read MPEC 2002-T81 Read MPEC 2002-T83


    M.P.E.C. 2002-T82                                Issued 2002 Oct. 14, 17:25 UT
    
         The Minor Planet Electronic Circulars contain information on unusual
             minor planets and routine data on comets.  They are published
       on behalf of Commission 20 of the International Astronomical Union by the
              Minor Planet Center, Smithsonian Astrophysical Observatory,
                              Cambridge, MA 02138, U.S.A.
    
                 Prepared using the Tamkin Foundation Computer Network
    
                                  MPC@CFA.HARVARD.EDU
              URL http://cfa-www.harvard.edu/iau/mpc.html  ISSN 1523-6714
    
                                       2000 TG2
    
                               Revision to MPEC 2000-T23
    
    Observations:
         K00T02G  C2002 10 11.42283 07 19 16.92 +13 20 25.2          20.4 R      649
         K00T02G  C2002 10 11.42935 07 19 18.21 +13 20 14.6          20.8 R      649
         K00T02G  C2002 10 14.42004 07 28 59.44 +11 54 50.7                      649
         K00T02G  C2002 10 14.42655 07 29 00.60 +11 54 40.9                      649
         K00T02G  C2002 10 14.43308 07 29 01.91 +11 54 29.0                      649
    
    Observer details:
    649 Powell Observatory, Louisburg.  Observers K. Smalley, R. Trentman.
        0.75-m Newtonian + CCD.
    
    First and last observations above in comparison with prediction:
    Residuals in seconds of arc, reference and Delta-T
    021011 649 66.9- 15.7+    021014 649 65.0- 14.9+    MPO  7602   +0.021 day
    
    Orbital elements:
    2000 TG2
    Epoch 2002 Nov. 22.0 TT = JDT 2452600.5                 MPC
    M  23.08565              (2000.0)            P               Q
    n   0.52506213     Peri.  200.23774     +0.68323199     -0.72410435
    a   1.5216996      Node   206.93356     +0.69529484     +0.68453337
    e   0.2452718      Incl.   11.99863     +0.22306755     +0.08418409
    P   1.88           H   20.0           G   0.15           U   3
    Residuals in seconds of arc
    001004 704  0.4-  0.7+    001006 608  0.2+  2.7-    001025 704  0.3-  0.0
    001004 704  0.3-  0.8+    001006 608 (0.3+  3.1-)   001025 704  0.1-  0.1+
    001004 704  0.4-  1.1+    001017 684  0.3+  0.2-    001031 808  0.1-  0.9+
    001004 704  0.5+  0.9+    001017 684  0.2+  0.3-    001031 808  0.8-  0.1-
    001004 704  0.2+  0.5+    001017 684  0.2+  0.2+    001102 704  0.0   1.0+
    001005 118  0.6+  0.6+    001017 684  0.1-  0.2-    001102 704  0.4+  0.1+
    001005 118  1.3+  0.7+    001017 684  0.2-  0.2-    001102 704  0.1-  0.0
    001005 118  0.0   0.6+    001022 046  0.1-  0.2+    001102 704  0.6+  0.3+
    001005 557  0.5-  0.7+    001022 046  0.4+  0.5+    001201 413  0.2+  0.8-
    001005 557  0.5-  0.4+    001022 046  0.1-  0.0     001201 413  0.0   0.1+
    001005 557  0.3-  0.5+    001022 046  0.1-  0.2-    001201 413  0.0   0.1-
    001005 557  0.4-  0.5+    001022 587  0.6+  0.1+    021011 649  0.8-  0.7-
    001005 118  0.3-  0.4+    001022 587  0.9-  0.2+    021011 649  0.3-  0.3-
    001005 118  0.5-  0.4+    001025 704  0.4-  0.4-    021014 649  0.4+  0.5-
    001005 118  0.7-  0.2+    001025 704  0.5+  0.2-    021014 649  0.4-  0.9+
    001006 608 (0.9+  3.8-)   001025 704  0.3+  0.1-    021014 649  0.9+  0.2+
    
    Ephemeris:
    2000 TG2                 a,e,i = 1.52, 0.25, 12                  q = 1.1485
    Date    TT    R. A. (2000) Decl.     Delta      r     Elong.  Phase     V
    2002 10 13    07 24.42   +12 35.8    0.594    1.149    88.6    60.3    21.3
    2002 10 23    07 54.93   +07 42.7    0.582    1.154    90.1    59.6    21.3
    2002 11 02    08 21.69   +02 43.5    0.572    1.164    92.2    58.4    21.2
    2002 11 12    08 44.60   -02 10.6    0.562    1.179    94.9    56.8    21.2
    2002 11 22    09 03.57   -06 50.0    0.553    1.199    98.2    54.6    21.1
    2002 12 02    09 18.36   -11 07.5    0.542    1.223   102.4    52.0    21.0
    2002 12 12    09 28.49   -14 54.5    0.529    1.250   107.4    48.7    20.9
    2002 12 22    09 33.53   -18 01.0    0.516    1.279   113.3    44.9    20.8
    2003 01 01    09 33.08   -20 15.1    0.504    1.311   120.2    40.4    20.7
    2003 01 11    09 27.12   -21 20.4    0.494    1.345   127.9    35.3    20.6
    2003 01 21    09 16.74   -21 02.7    0.491    1.379   135.9    29.8    20.4
    2003 01 31    09 04.02   -19 16.2    0.497    1.414   143.1    24.7    20.4
    2003 02 10    08 51.82   -16 11.2    0.517    1.450   147.6    21.4    20.4
    2003 02 20    08 42.75   -12 17.2    0.552    1.485   147.8    20.8    20.6
    2003 03 02    08 38.21   -08 09.8    0.603    1.519   143.7    22.7    20.9
    2003 03 12    08 38.57   -04 18.1    0.670    1.553   137.2    25.7    21.3
    2003 03 22    08 43.38   -01 00.2    0.750    1.586   130.0    28.8    21.6
    2003 04 01    08 51.84   +01 37.9    0.842    1.618   122.8    31.3    22.0
    
    Timothy B. Spahr             (C) Copyright 2002 MPC           M.P.E.C. 2002-T82
    

    Read MPEC 2002-T81 Read MPEC 2002-T83


    MPEC number:

    Enter an MPEC number in one of the following forms:

    • 1997-B01 (the full form)
    • J97B01 (the packed version of the full form)
    • B01 (the abbreviated form)